Change the Weather History Date:

Tuesday, May 15, 2012

  Actual Average Record
Temperature  
Mean Temperature 59 °F 58 °F  
Max Temperature 80 °F 71 °F 95 °F (1931)
Min Temperature 37 °F 44 °F 23 °F (1907)
Degree Days  
Heating Degree Days 6 8  
Month to date heating degree days 104 151  
Since 1 July heating degree days 5670 6541  
Cooling Degree Days 0 1  
Month to date cooling degree days 16 5  
Year to date cooling degree days 29 8  
Growing Degree Days 8 (Base 50)    
Moisture  
Dew Point 38 °F    
Average Humidity 54    
Maximum Humidity 85    
Minimum Humidity 23    
Precipitation  
Precipitation 0.00 in 0.11 in 1.63 in (1951)
Month to date precipitation 0.10 1.44  
Year to date precipitation 5.95 5.60  
Snow  
Snow 0.00 in 0.00 in T in (1945)
Month to date snowfall 0.0 0.0  
Since 1 July snowfall 15.6 28.5  
Snow Depth 0.00 in    
Sea Level Pressure  
Sea Level Pressure 30.08 in    
Wind  
Wind Speed 9 mph (NNE)    
Max Wind Speed 21 mph    
Max Gust Speed 28 mph    
Visibility 10 miles    
Events      
T = Trace of Precipitation, MM = Missing Value Source: NWS Daily Summary

Daily Weather History Graph

Daily Weather History Graph

Search for Another Location

Airport or City:

Trip Planner

Search our weather history database for the weather conditions in past years. The results will help you decide how hot, cold, wet, or windy it might be!

Date:

Astronomy

May. 15, 2012 Rise Set
Actual Time 6:24 AM CDT 8:54 PM CDT
Civil Twilight 5:52 AM CDT 9:26 PM CDT
Nautical Twilight 5:13 AM CDT 10:05 PM CDT
Astronomical Twilight 4:29 AM CDT 10:49 PM CDT
Moon 3:29 AM CDT (5/15) 4:12 PM CDT (5/15)
Length of Visible Light 15h 33m
Length of Day
14h 30m
Waning Crescent, 23% of the Moon is Illuminated
May 15
Waning Crescent
May 20
New
May 28
First Quarter
Jun 4
Full
Jun 11
Last Quarter

Hourly Weather History & Observations

Time (CDT) Temp. Windchill Dew Point Humidity Pressure Visibility Wind Dir Wind Speed Gust Speed Precip Events Conditions
12:53 AM 48.0 °F - 39.9 °F 74% 30.01 in 10.0 mi Calm Calm - N/A   Clear
1:53 AM 45.0 °F - 37.9 °F 76% 30.02 in 10.0 mi Calm Calm - N/A   Clear
2:53 AM 41.0 °F 39.0 °F 36.0 °F 82% 30.02 in 10.0 mi WNW 3.5 mph - N/A   Clear
3:53 AM 39.0 °F 35.7 °F 35.1 °F 86% 30.02 in 10.0 mi WNW 4.6 mph - N/A   Clear
4:53 AM 39.0 °F 36.8 °F 35.1 °F 86% 30.01 in 10.0 mi WNW 3.5 mph - N/A   Clear
5:53 AM 37.4 °F 33.8 °F 33.8 °F 87% 30.05 in 10.0 mi NW 4.6 mph - N/A   Clear
6:53 AM 37.9 °F 33.5 °F 34.0 °F 86% 30.04 in 10.0 mi NW 5.8 mph - N/A   Clear
7:53 AM 52.0 °F - 39.9 °F 63% 30.06 in 10.0 mi WNW 3.5 mph - N/A   Clear
8:53 AM 62.1 °F - 39.9 °F 44% 30.09 in 10.0 mi NNW 8.1 mph 16.1 mph N/A   Clear
9:53 AM 68.0 °F - 41.0 °F 37% 30.12 in 10.0 mi Variable 6.9 mph 17.3 mph N/A   Clear
10:53 AM 71.1 °F - 39.0 °F 31% 30.12 in 10.0 mi NNE 12.7 mph 20.7 mph N/A   Clear
11:53 AM 73.9 °F - 39.0 °F 28% 30.12 in 10.0 mi NNE 19.6 mph 26.5 mph N/A   Clear
12:53 PM 75.9 °F - 39.9 °F 27% 30.12 in 10.0 mi NE 10.4 mph 20.7 mph N/A   Clear
1:53 PM 79.0 °F - 41.0 °F 26% 30.10 in 10.0 mi NE 18.4 mph 23.0 mph N/A   Clear
2:53 PM 80.1 °F - 39.9 °F 24% 30.10 in 10.0 mi NE 15.0 mph 20.7 mph N/A   Clear
3:53 PM 80.1 °F - 39.9 °F 24% 30.10 in 10.0 mi NNE 12.7 mph 21.9 mph N/A   Clear
4:53 PM 80.1 °F - 39.0 °F 23% 30.09 in 10.0 mi NNE 13.8 mph 18.4 mph N/A   Clear
5:53 PM 78.1 °F - 37.0 °F 23% 30.10 in 10.0 mi NNE 11.5 mph 19.6 mph N/A   Clear
6:53 PM 75.9 °F - 36.0 °F 23% 30.09 in 10.0 mi NE 10.4 mph - N/A   Clear
7:53 PM 71.1 °F - 37.9 °F 30% 30.08 in 10.0 mi ENE 6.9 mph - N/A   Clear
8:53 PM 62.1 °F - 37.9 °F 41% 30.10 in 10.0 mi NE 6.9 mph - N/A   Clear
9:53 PM 55.0 °F - 37.9 °F 53% 30.12 in 10.0 mi NE 4.6 mph - N/A   Clear
10:53 PM 54.0 °F - 37.0 °F 53% 30.13 in 10.0 mi East 8.1 mph - N/A   Clear
11:53 PM 51.1 °F - 37.0 °F 59% 30.12 in 10.0 mi ESE 8.1 mph - N/A   Clear